TimeCST,TemperatureF,Dew PointF,Humidity,Sea Level PressureIn,VisibilityMPH,Wind Direction,Wind SpeedMPH,Gust SpeedMPH,PrecipitationIn,Events,Conditions,WindDirDegrees,DateUTC
12:00 AM,83,76,73,29.94,12,East,11.5,,,,,90,2012-07-02 06:00:00
3:00 AM,82,75,75,29.91,12,East,6.9,,,,Scattered Clouds,100,2012-07-02 09:00:00
5:00 AM,82.4,75.2,79,29.92,6.2,East,6.9,-,N/A,,Mostly Cloudy,100,2012-07-02 11:00:00
6:00 AM,82,76,77,29.95,12,East,4.6,,,,,100,2012-07-02 12:00:00
6:00 AM,82.4,75.2,79,29.95,6.2,East,4.6,-,N/A,,Mostly Cloudy,100,2012-07-02 12:00:00
7:00 AM,84.2,77.0,79,29.95,6.2,East,6.9,-,N/A,,Mostly Cloudy,100,2012-07-02 13:00:00
8:00 AM,86.0,77.0,74,29.95,6.2,ESE,11.5,-,N/A,,Mostly Cloudy,110,2012-07-02 14:00:00
9:00 AM,87,77,64,29.98,12,East,12.7,,,,Mostly Cloudy,90,2012-07-02 15:00:00
9:00 AM,87.8,77.0,70,29.97,6.2,East,12.7,-,N/A,,Mostly Cloudy,90,2012-07-02 15:00:00
10:00 AM,87.8,77.0,70,29.97,6.2,East,9.2,-,N/A,,Mostly Cloudy,90,2012-07-02 16:00:00
11:00 AM,87.8,77.0,70,29.97,6.2,East,13.8,-,N/A,,Mostly Cloudy,90,2012-07-02 17:00:00
12:00 PM,89,77,61,29.98,12,East,12.7,,,,,80,2012-07-02 18:00:00
12:00 PM,89.6,77.0,66,29.97,6.2,East,12.7,-,N/A,,Mostly Cloudy,80,2012-07-02 18:00:00
1:00 PM,89.6,77.0,66,29.95,6.2,East,15.0,-,N/A,Thunderstorm,Thunderstorm,90,2012-07-02 19:00:00
1:10 PM,89.6,77.0,66,29.96,3.1,East,13.8,-,N/A,Thunderstorm,Thunderstorm,90,2012-07-02 19:10:00
1:30 PM,89.6,77.0,66,29.96,3.1,SE,9.2,-,N/A,Rain,Light Rain Showers,140,2012-07-02 19:30:00
1:40 PM,89.6,77.0,66,29.96,6.2,SE,6.9,-,N/A,,Mostly Cloudy,140,2012-07-02 19:40:00
2:00 PM,78.8,75.2,89,29.95,6.2,ESE,5.8,-,N/A,,Mostly Cloudy,120,2012-07-02 20:00:00
3:00 PM,84.2,77.0,79,29.93,6.2,East,8.1,-,N/A,,Mostly Cloudy,90,2012-07-02 21:00:00
3:05 PM,84.2,77.0,79,29.93,6.2,East,8.1,-,N/A,Thunderstorm,Thunderstorm,90,2012-07-02 21:05:00
3:30 PM,84.2,77.0,79,29.94,3.1,East,11.5,-,N/A,Rain-Thunderstorm,Thunderstorms and Rain,80,2012-07-02 21:30:00
3:35 PM,84.2,77.0,79,29.93,6.2,East,11.5,-,N/A,Rain,Light Rain Showers,80,2012-07-02 21:35:00
4:00 PM,78.8,77.0,94,29.94,3.1,ESE,11.5,-,N/A,Rain,Light Rain Showers,110,2012-07-02 22:00:00
4:05 PM,78.8,77.0,94,29.93,4.3,ESE,9.2,-,N/A,Rain-Thunderstorm,Thunderstorms and Rain,110,2012-07-02 22:05:00
4:20 PM,78.8,77.0,94,29.93,6.2,East,6.9,-,N/A,,Mostly Cloudy,100,2012-07-02 22:20:00
5:00 PM,78.8,77.0,94,29.92,6.2,East,5.8,-,N/A,,Mostly Cloudy,100,2012-07-02 23:00:00
6:00 PM,82.4,77.0,84,29.94,6.2,East,8.1,-,N/A,Thunderstorm,Thunderstorm,90,2012-07-03 00:00:00